Home   Weather   Sagamihara   Past weeks

Flag for Japan Past Weather in Sagamihara, Japan — Yesterday and Last 2 Weeks

Now
54 °F

Sunny.


Feels Like: 54 °F
Forecast: 53 / 67 °F
Wind: No wind

Location: Yokota Ab

Current Time: Apr 26, 2017 at 7:26:24 am

Latest Report: Apr 26, 2017 at 6:58 am


Visibility: 10 mi

Pressure: 30.09 "Hg

Humidity: 77%

Dew Point: 47 °F

Location of SagamiharaLocation

Past Weather in Sagamihara — Graph

°F

Sagamihara Temperature Yesterday

Maximum temperature yesterday: 68 °F (at 12:58 pm)
Minimum temperature yesterday: 48 °F (at 4:58 am)
Average temperature yesterday: 58 °F

High & Low Weather Summary for the Past Weeks

 TemperatureHumidityPressure
High79 °F (Apr 19, 1:07 pm)100% (Apr 11, 3:32 pm)30.36 "Hg (Apr 11, 3:32 pm)
Low41 °F (Apr 13, 5:58 am)12% (Apr 19, 1:07 pm)29.18 "Hg (Apr 18, 2:58 pm)
Average57 °F63%29.83 "Hg
* Reported Apr 11 5:10 am — Apr 26 5:58 am, Sagamihara, Weather by CustomWeather, © 2017

Note: Actual official high and low records may vary slightly from our data, if they occured in-between our weather recording intervals... More about our weather records

Advertising

Sagamihara Weather History for the Previous 24 Hours

Scroll right to see more
 ConditionsComfort  
Time TempWeatherWind HumidityBarometerVisibility
5:58 am
Wed, Apr 26
53 °FPartly sunny.No wind80%30.11 "Hg10 mi
4:58 am51 °FScattered clouds.3 mph84%30.11 "Hg10 mi
3:58 am52 °FClear.No wind83%30.12 "Hg10 mi
2:58 am53 °FClear.No wind78%30.14 "Hg10 mi
1:58 am53 °FClear.3 mph79%30.16 "Hg10 mi
12:58 am53 °FClear.3 mph81%30.18 "Hg10 mi
11:58 pm
Tue, Apr 25
54 °FClear.3 mph79%30.20 "Hg10 mi
10:58 pm55 °FClear.No wind72%30.21 "Hg10 mi
9:58 pm56 °FClear.No wind72%30.22 "Hg10 mi
8:58 pm57 °FClear.10 mph69%30.22 "Hg10 mi
7:58 pm57 °FClear.13 mph71%30.23 "Hg10 mi
6:58 pm57 °FClear.13 mph72%30.21 "Hg10 mi
5:58 pm59 °FSunny.21 mph64%30.21 "Hg10 mi
4:58 pm61 °FSunny.24 mph60%30.21 "Hg10 mi
3:58 pm64 °FSunny.25 mph50%30.19 "Hg10 mi
2:58 pm65 °FSunny.22 mph46%30.20 "Hg10 mi
1:58 pm66 °FSunny.21 mph45%30.24 "Hg10 mi
12:58 pm68 °FSunny.17 mph45%30.25 "Hg10 mi
11:58 am67 °FSunny.14 mph47%30.28 "Hg10 mi
11:21 am66 °FSunny.15 mph49%30.29 "Hg10 mi
10:58 am65 °FSunny.16 mph50%30.31 "Hg10 mi
9:58 am64 °FSunny.13 mph52%30.34 "Hg10 mi
8:58 am61 °FSunny.12 mph61%30.35 "Hg10 mi
7:58 am57 °FSunny.3 mph71%30.35 "Hg10 mi
Weather by CustomWeather, © 2017

See weather overviewHow to use our weather pages